Regional Weather Roundup
Issued by NWS Spokane, WA

Current Version | Previous Version | Text Only | Print | Product List | Glossary On
Versions: 1 2 3 4 5 6 7 8 9 10 11 12 13 14 15 16 17 18 19 20 21 22 23 24 25 26 27 28 29 30 31 32 33 34 35 36 37 38 39 40 41 42 43 44 45 46 47 48 49 50
000
NZUS01 KOTX 021910
RWROTX
EASTERN WASHINGTON/NORTHERN IDAHO ROUNDUP
NATIONAL WEATHER SERVICE, SPOKANE WA
1100 AM PST MON MAR 02 2015

Note: "fair" indicated few or no clouds below 12,000 feet with no
significant weather and/or obstructions to visibility.

...NORTHEAST WASHINGTON AND NORTHERN IDAHO PANHANDLE...

CITY           SKY/WX    TMP DP  RH WIND       PRES   REMARKS
SPOKANE INTL   CLOUDY    35  23  61 NE10      29.90S WCI  27
SPOKANE DOWNTO CLOUDY    38  23  55 N6        29.92F
COEUR D ALENE  CLOUDY    36  18  48 N10       29.89S
DEER PARK      CLOUDY    38  21  50 N8        29.91S
SANDPOINT      CLOUDY    36  21  55 NE5       29.91S
BONNERS FERRY  FAIR      32  25  74 CALM      29.92S

...SOUTHEAST WASHINGTON AND SOUTHERN IDAHO PANHANDLE...

CITY           SKY/WX    TMP DP  RH WIND       PRES   REMARKS
WALLA WALLA    CLOUDY    41  24  51 S8        29.94R
PULLMAN/MOSCOW CLOUDY    39  22  50 CALM      29.88S
LEWISTON       CLOUDY    39  26  59 N3        29.90F
LOWELL           N/A     39  18  42 CALM      29.92F

...COLUMBIA BASIN...

CITY           SKY/WX    TMP DP  RH WIND       PRES   REMARKS
EPHRATA        CLOUDY    47  25  42 NE10      29.94F
MOSES LAKE     CLOUDY    44  27  51 N7        29.96S
TRI CITIES     PTSUNNY   50  27  40 N12       29.98F
HERMISTON      PTSUNNY   45  22  40 W5        29.96F
PENDLETON      CLOUDY    42  20  41 NW10      29.93S

...EAST SLOPES CASCADES...

CITY           SKY/WX    TMP DP  RH WIND       PRES   REMARKS
THE DALLES     MOSUNNY   47  33  58 CALM      29.98F
YAKIMA         CLOUDY    46  27  47 NE8       29.97S
ELLENSBURG     CLOUDY    43  30  60 W3        29.94S
WENATCHEE      CLOUDY    45  28  51 CALM      29.96F
OMAK           MOSUNNY   45  20  36 N22G30    29.97S

...SOUTHERN BRITISH COLUMBIA...

CITY           SKY/WX    TMP DP  RH WIND       PRES   REMARKS
PENTICTON      PTSUNNY   45  21  39 N20G26    30.03R
CASTLEGAR      PTSUNNY   39  25  56 N7        29.93

...WESTERN MONTANA...

CITY           SKY/WX    TMP DP  RH WIND       PRES   REMARKS
MISSOULA       CLOUDY    30  13  49 CALM      29.87F

...NEIGHBORING CITIES...

CITY           SKY/WX    TMP DP  RH WIND       PRES   REMARKS
SEATTLE        PTSUNNY   46  36  68 N10       30.04S
CALGARY        CLOUDY    21  12  68 N23G35    30.04R WCI   5



USA.gov is the U.S. government's official web portal to all federal, state and local government web resources and services.